User: anonymous   Login
Location: Columbia
(38.9520°N, 92.3340°W)
Time: 12:45:05
(UTC-05:00)
Language:

Iridium 15 - Orbit

View from above orbital plane
View from above orbital plane
View from above satellite
View from above satellite

Ground track
Ground track

The orbit data is extracted from the following two-line orbital elements,

1 24869U 97034A   17085.88483687 +.00000003 +00000-0 -60259-5 0  9996
2 24869 086.3948 056.5007 0001952 084.7248 275.4170 14.34216372031847
Epoch (UTC): 26 March 2017 21:14:09
Eccentricity: 0.0001952
inclination: 86.3948°
perigee height: 776 km
apogee height: 779 km
right ascension of ascending node: 56.5007°
argument of perigee: 84.7248°
revolutions per day: 14.34216372
mean anomaly at epoch: 275.4170°
orbit number at epoch: 3184

The dashed part of the orbit path shows where the satellite is in the earth's shadow,  

DLR